Wind_Speed
15 14 12 11 8 5 4 3 3 2 1 1 1 0 1 2 2 3 5 7 6 7 8 8 8 7 6 9 10 10 8 5 3 6 9 10 11 10 9 8 9 8 8 7 6 5 3 3 2 2 3 4 5 6 6 7 8 9 9 9 9 9 9 9 10 10 10 10 10 10 11 11 12 12 12 12 12 12 11 11 10 11 12 13 14
14 12 10 8 6 4 3 2 2 1 2 2 2 1 0 0 1 3 5 5 3 4 7 7 8 9 8 10 10 8 7 6 4 6 9 10 10 10 9 8 8 7 6 5 4 3 2 2 2 2 3 4 5 5 6 6 7 8 7 7 6 7 7 7 7 8 8 8 8 9 9 9 8 9 10 11 11 11 10 10 11 12 14 15 17
10 9 7 6 5 4 4 4 4 4 3 2 1 1 1 1 2 4 5 4 2 3 6 7 10 11 11 12 10 8 7 6 5 6 7 8 8 8 7 7 6 5 5 4 3 3 3 4 3 3 3 3 4 5 5 5 6 6 6 7 7 7 7 7 8 8 8 8 8 8 8 8 8 8 9 10 9 9 10 11 13 15 16 17 19
9 8 7 6 6 6 6 6 5 4 3 2 1 1 2 3 4 4 5 4 3 2 4 10 13 12 12 13 11 8 7 6 5 5 5 5 4 4 5 5 4 4 3 3 3 3 4 4 4 4 4 4 4 4 4 5 5 6 7 8 8 9 9 9 10 10 9 9 9 9 9 9 9 9 9 8 8 9 11 13 14 16 17 19 20
9 8 8 8 8 8 7 6 5 4 4 3 2 2 2 3 4 4 4 5 4 2 3 10 14 13 12 13 13 9 7 7 6 5 5 4 3 3 3 3 3 4 3 3 3 3 4 4 4 4 4 5 5 6 6 6 7 7 8 8 9 9 10 10 11 11 11 11 11 10 9 9 9 9 8 8 9 10 12 13 15 17 18 19 20
9 9 9 10 9 8 7 6 5 4 4 3 2 1 1 2 3 4 6 8 6 4 7 10 12 12 11 12 13 11 9 8 6 4 4 4 3 3 2 2 2 3 3 3 3 4 4 5 5 5 5 6 6 7 7 7 7 7 8 8 8 9 10 10 10 11 11 11 11 10 9 8 8 9 9 10 10 12 13 15 17 18 20 21 21
10 10 10 10 8 8 7 6 5 3 3 3 2 2 2 3 5 6 8 9 6 4 8 11 13 11 10 10 10 10 10 9 6 5 4 4 3 3 3 2 2 2 3 3 3 3 4 5 5 6 6 7 7 7 6 6 6 7 8 8 9 9 10 10 10 10 11 11 11 10 10 9 9 10 10 12 12 13 15 16 18 19 21 22 21
10 10 10 8 7 7 6 6 4 3 3 3 3 3 3 4 6 8 9 10 7 5 8 12 13 10 8 8 7 8 11 9 7 6 3 2 2 2 2 1 1 2 3 3 2 2 3 4 4 5 6 7 6 6 6 6 6 7 7 8 9 10 10 10 10 11 11 11 11 11 11 11 11 11 12 13 14 15 15 17 18 20 22 22 22
10 9 8 8 8 8 6 5 3 3 4 4 4 4 4 4 5 8 10 9 7 6 8 10 10 8 7 8 7 8 10 8 7 6 3 2 1 1 1 0 0 1 2 3 2 2 2 2 2 3 4 5 5 6 6 6 7 7 8 8 9 10 10 11 11 11 11 12 12 12 12 12 13 13 13 14 14 15 16 17 18 20 22 22 22
10 9 9 9 8 7 5 4 3 3 4 5 5 4 4 5 6 8 10 7 6 6 7 7 6 5 6 9 8 8 9 6 6 5 4 3 1 1 1 2 1 2 2 2 2 2 2 2 1 2 3 3 4 5 6 7 7 8 9 10 10 10 10 11 12 12 12 12 13 13 13 14 14 15 15 15 15 16 16 17 18 20 21 22 22
10 10 10 9 8 6 5 4 3 3 4 5 5 5 5 6 7 8 9 7 5 5 4 5 5 6 7 8 8 8 7 5 5 4 4 4 2 1 2 2 2 2 2 1 0 1 1 1 2 3 2 3 4 5 6 7 8 9 10 12 12 12 12 12 13 13 13 13 14 14 14 14 15 15 16 16 16 16 17 17 18 19 21 22 21
10 10 11 10 8 6 5 5 4 3 4 4 5 5 6 7 8 9 10 8 4 4 4 5 10 10 9 8 7 6 5 4 4 4 5 5 4 3 3 4 3 3 3 2 2 1 2 3 4 4 3 3 4 5 6 8 9 11 12 13 14 14 14 14 14 14 14 13 14 15 15 15 15 16 16 17 17 17 17 17 19 19 20 21 21
11 12 12 11 9 6 5 5 5 4 4 3 4 5 6 6 7 8 9 9 6 4 4 8 12 10 8 7 5 4 3 3 3 4 5 4 5 6 6 6 4 3 3 2 2 2 2 4 5 5 4 4 5 5 7 8 10 10 11 13 14 14 15 15 15 15 14 14 14 15 15 14 15 15 16 17 18 18 18 18 19 19 20 20 20
11 11 11 10 8 7 5 4 5 4 3 3 3 4 6 6 7 9 8 7 6 6 4 7 8 6 6 4 2 1 2 2 2 3 4 5 5 7 8 7 5 4 2 3 3 3 1 3 4 5 5 6 6 6 7 9 10 10 11 13 14 13 13 14 15 14 14 14 14 14 15 15 16 17 17 18 18 18 19 19 19 19 19 19 19
10 10 10 9 7 6 5 4 4 3 3 3 3 3 5 7 8 8 8 6 4 6 5 5 7 7 5 2 2 1 1 2 1 2 2 5 7 8 9 8 5 4 4 4 4 3 2 1 3 4 5 6 7 7 8 9 10 10 12 13 14 13 13 14 15 16 16 15 15 15 16 17 18 19 20 20 20 19 19 19 20 19 18 18 18
11 10 8 7 7 6 6 4 3 3 3 3 3 3 5 7 7 7 7 7 5 5 5 4 7 7 3 2 1 2 1 3 2 1 4 2 6 9 11 10 7 5 5 6 6 4 4 3 3 3 4 5 7 8 8 9 10 11 12 13 13 14 14 15 16 18 18 18 17 17 17 18 19 21 21 21 20 20 19 19 19 19 17 17 17
11 11 7 6 7 6 5 4 4 4 3 3 2 3 4 5 6 6 7 7 6 4 3 4 4 3 2 2 1 1 2 2 3 2 4 6 3 6 8 8 7 5 5 7 7 6 6 6 5 4 5 6 7 8 8 9 11 12 13 14 14 15 15 16 17 18 19 19 19 19 19 19 20 22 22 21 21 20 19 18 18 18 16 15 16
10 9 7 6 7 6 5 4 5 5 3 2 2 3 3 3 4 4 5 5 5 5 5 5 5 5 4 2 1 2 2 1 1 1 4 5 4 3 3 1 2 3 4 6 8 8 7 7 6 6 7 8 7 8 8 9 12 14 14 15 16 16 16 17 17 18 20 20 19 20 20 21 22 23 23 22 21 19 18 18 18 17 15 14 15
9 8 7 7 7 7 6 5 5 4 3 2 1 2 2 2 3 2 3 3 4 6 8 7 7 7 6 5 3 2 1 1 1 1 2 2 2 2 1 2 3 2 3 4 5 5 5 6 6 6 8 9 9 11 10 10 13 15 15 16 17 17 17 18 18 18 20 21 20 19 21 22 23 24 24 22 20 19 17 17 17 17 14 13 14
9 8 7 7 8 8 6 6 5 4 3 2 0 2 3 2 1 1 0 1 3 6 8 8 8 8 7 6 5 1 1 2 1 1 2 1 3 2 2 5 5 2 3 5 5 2 3 6 7 8 9 10 11 11 10 11 14 16 16 15 16 17 18 18 18 19 21 22 21 20 20 22 23 24 25 23 21 19 19 18 17 16 13 12 13
10 8 7 7 7 7 7 6 5 4 4 2 1 3 4 2 1 1 1 0 2 4 5 7 8 8 8 7 6 4 1 1 1 1 2 1 2 3 5 9 8 5 3 4 5 4 4 6 7 9 10 10 10 9 9 12 15 15 14 14 15 18 19 18 19 20 21 22 22 21 21 22 23 24 24 23 21 20 20 19 18 16 13 11 12
11 9 7 7 7 7 7 7 5 4 4 3 4 5 5 4 3 3 2 2 1 1 2 4 6 6 7 7 6 5 2 2 2 1 2 2 1 3 6 7 7 8 8 6 7 7 6 7 8 10 10 9 10 11 12 14 15 14 13 14 16 17 18 17 18 20 21 22 23 23 23 23 23 24 24 23 22 21 21 20 19 16 13 11 10
11 10 8 8 8 7 8 8 6 5 5 5 5 5 6 5 3 4 4 3 2 2 1 2 5 5 6 6 7 6 3 1 1 1 1 0 0 3 6 6 6 9 10 9 8 7 9 10 10 10 10 11 13 14 15 14 14 14 14 14 15 16 16 16 19 20 22 24 25 25 24 24 24 23 22 22 22 21 20 21 19 16 13 11 10
12 12 10 10 9 7 8 9 7 6 6 5 6 5 5 5 4 4 4 3 2 2 2 1 3 5 6 7 6 6 4 3 2 1 2 1 1 3 6 5 4 7 10 10 8 8 10 10 9 10 11 13 14 13 13 12 13 15 14 14 16 15 15 18 20 22 24 27 27 26 24 23 23 21 19 20 21 21 20 20 20 17 13 11 10
14 14 12 11 10 9 10 10 8 8 8 6 6 6 4 5 6 5 4 3 2 2 1 1 2 5 7 6 5 5 5 4 4 3 3 3 3 3 4 3 3 6 9 9 9 9 9 7 9 11 12 13 13 11 11 13 14 15 14 16 17 14 15 19 21 23 25 26 26 25 22 19 18 17 16 17 20 21 20 19 20 19 14 11 10
15 14 12 11 11 9 10 10 9 9 8 7 7 6 6 6 6 6 5 4 3 2 2 2 3 5 6 5 4 4 5 5 5 4 3 3 4 4 4 4 4 5 7 8 10 9 8 9 11 10 11 13 12 11 12 15 16 15 15 17 15 13 16 19 20 23 24 23 24 24 20 16 16 15 15 16 18 20 20 18 19 19 16 12 10
14 13 11 12 12 11 10 10 10 10 9 9 8 8 7 7 6 7 6 4 3 3 4 3 3 5 5 5 5 5 6 6 5 5 4 4 4 3 3 3 3 4 6 7 9 8 8 11 12 10 10 12 12 13 14 15 15 15 15 14 13 14 17 19 21 22 21 21 23 24 20 16 17 17 17 17 17 19 20 18 18 18 17 13 11
13 13 13 13 13 12 11 11 11 10 10 10 10 9 9 8 7 8 6 5 4 4 4 4 4 5 5 6 6 6 6 5 4 4 4 4 4 5 5 3 2 3 4 5 5 6 8 12 12 12 12 12 12 14 15 14 13 13 14 14 14 17 18 19 20 20 19 21 23 23 20 18 19 20 20 20 19 19 20 19 17 17 17 15 12
13 14 14 14 13 13 12 11 11 9 9 10 10 10 9 8 8 8 7 6 6 5 5 5 6 6 6 5 6 6 6 6 5 5 5 5 6 6 6 6 4 2 1 3 3 4 7 11 12 12 14 14 13 14 15 15 14 14 15 15 16 18 18 18 19 18 18 20 22 23 21 20 22 24 22 21 19 19 21 20 18 17 16 15 13
13 14 14 14 14 13 12 11 10 9 8 9 10 11 10 8 7 7 6 5 6 5 5 6 7 8 7 6 7 7 6 6 6 6 6 7 7 7 6 7 7 6 3 2 3 4 7 12 13 13 15 16 15 15 16 16 15 15 14 15 16 17 18 19 19 19 19 20 21 21 21 22 25 24 20 18 17 17 19 19 18 17 15 15 14
13 14 14 14 13 13 12 12 11 9 9 9 8 9 10 9 8 8 7 6 6 6 7 8 8 7 6 6 7 7 5 5 5 6 7 8 9 9 7 7 8 8 7 3 2 5 9 13 16 15 15 17 17 16 16 15 15 14 14 14 16 18 20 21 21 22 22 19 18 19 21 24 24 20 17 18 18 17 18 18 17 16 14 13 13
14 15 15 14 13 13 12 12 11 10 10 9 9 9 9 9 9 9 8 7 7 8 7 8 7 6 6 7 8 7 5 5 6 6 7 8 9 10 10 9 8 9 10 6 5 8 14 15 16 16 15 17 18 18 18 17 15 15 15 16 18 21 22 22 21 21 19 17 17 20 22 23 21 18 18 21 21 18 17 18 17 15 13 11 12
15 15 15 14 13 13 12 12 12 11 10 10 10 10 10 11 10 10 9 8 8 8 8 8 8 7 7 7 7 7 7 8 9 9 9 9 9 9 10 11 10 10 11 9 8 10 15 16 15 15 16 18 19 19 19 19 20 20 20 20 20 20 19 18 19 19 18 18 19 21 21 19 18 19 21 24 22 17 15 16 17 17 13 10 10
15 16 15 14 13 13 13 12 12 11 11 11 11 11 10 11 11 10 10 9 9 9 9 9 8 7 8 8 9 8 8 9 10 10 10 10 9 9 9 11 11 9 9 11 9 9 14 16 15 16 16 17 18 18 19 21 23 22 20 19 18 17 18 19 21 23 23 22 20 20 20 18 18 21 22 21 18 14 14 15 16 17 16 11 8
16 16 16 15 14 14 13 13 12 12 12 12 11 11 11 11 12 11 10 10 10 10 10 9 9 8 8 9 10 9 9 10 10 10 11 11 10 10 10 10 11 10 9 10 11 11 13 15 15 16 16 16 17 18 19 21 21 18 16 16 17 18 21 23 25 26 26 24 21 20 20 20 20 20 19 17 14 13 14 15 16 17 17 13 8
18 18 18 16 15 15 15 14 14 13 14 14 13 13 13 12 11 11 11 11 11 11 10 9 9 9 10 11 10 10 11 11 10 11 11 12 11 10 10 10 11 11 10 10 11 12 13 14 15 15 15 16 17 17 18 18 17 15 15 17 19 22 24 26 27 27 26 23 20 19 20 21 20 18 17 17 15 13 13 15 16 16 15 13 9
19 19 19 18 17 17 17 17 16 16 15 15 14 14 13 12 12 12 12 11 12 12 12 11 10 11 11 11 11 11 11 11 10 10 10 11 12 11 10 11 11 10 10 9 10 11 12 12 13 14 15 15 16 15 15 17 17 17 18 19 21 24 26 28 28 27 25 22 20 20 20 19 18 17 18 20 17 13 13 15 16 15 13 11 9
18 19 19 19 19 19 19 18 18 18 16 15 15 15 14 13 12 13 13 13 12 12 12 12 12 12 11 10 9 10 11 11 11 10 10 10 11 11 11 11 10 8 7 7 7 8 8 9 12 15 15 15 14 15 15 16 17 19 22 23 23 24 27 29 30 28 23 21 21 21 21 20 18 17 19 21 19 17 17 17 16 14 11 9 7
20 19 19 20 20 20 20 19 19 20 18 17 16 15 14 13 13 13 14 14 14 12 11 12 13 13 12 11 10 10 11 12 13 11 11 10 10 11 12 12 11 8 7 6 7 8 10 11 13 14 14 14 14 15 15 16 16 18 22 24 25 27 29 30 31 26 22 22 22 21 20 19 17 18 19 20 20 20 19 19 16 14 12 10 8
19 21 21 21 21 22 22 21 20 21 20 18 17 16 15 15 15 15 14 14 14 13 12 14 14 12 12 12 12 11 10 11 12 11 11 11 12 13 13 12 11 9 8 7 8 10 11 12 12 12 13 15 16 16 17 16 16 18 20 20 22 27 30 30 28 23 21 24 24 20 19 18 17 19 20 20 20 20 20 19 18 16 13 12 11
12 15 18 19 21 24 25 23 21 22 21 20 18 18 18 18 17 16 16 15 14 13 12 12 11 11 12 13 12 10 10 10 10 10 10 11 12 14 12 11 11 10 8 9 10 10 11 11 12 13 14 16 17 17 17 15 15 16 18 18 20 24 27 28 25 20 20 24 24 21 20 19 18 19 20 21 21 21 20 20 20 18 15 12 11
9 8 9 11 15 20 24 25 23 22 21 20 19 19 18 18 18 17 17 16 15 14 13 11 9 8 10 10 9 8 8 8 9 10 11 12 13 14 12 11 11 11 10 10 9 9 9 10 12 13 13 15 16 15 15 14 14 15 16 18 21 22 24 24 22 21 21 23 24 22 19 18 19 20 21 22 21 20 20 20 21 20 17 14 11
12 10 8 7 9 12 17 22 22 22 21 20 20 19 18 17 18 18 18 18 17 15 13 11 9 7 5 6 6 6 7 8 8 10 11 12 13 13 12 11 10 10 10 9 8 7 8 9 11 12 12 14 13 12 12 13 14 15 17 18 19 19 19 18 17 19 21 22 23 21 18 18 20 22 22 21 19 17 18 19 19 20 19 17 15
12 12 11 9 9 9 11 16 19 21 21 20 19 19 18 18 18 17 18 19 18 16 14 11 10 8 6 5 5 5 6 8 10 10 11 11 12 12 12 11 10 9 8 8 7 7 7 8 10 11 11 11 11 11 12 14 15 16 18 19 17 16 16 15 16 19 21 21 21 19 16 17 21 24 23 22 19 17 18 18 17 18 18 17 16
11 11 10 9 9 9 10 12 15 17 19 19 19 18 18 18 18 17 16 18 20 18 16 14 13 10 9 7 6 6 7 9 10 10 10 11 11 11 11 11 10 8 8 8 7 7 7 7 9 10 9 8 10 12 13 15 17 18 19 19 17 16 16 16 17 18 19 20 18 16 16 19 22 24 24 24 21 18 19 19 18 17 18 17 16
10 9 8 8 8 9 10 11 12 14 16 18 18 16 15 15 15 15 14 16 18 18 16 15 14 12 11 9 8 9 10 10 11 11 11 11 10 9 9 8 8 7 7 7 6 6 6 6 7 6 5 7 10 13 15 15 17 17 18 18 17 16 16 14 14 15 16 17 15 14 15 19 22 24 25 25 20 17 20 22 20 18 17 16 17
11 10 8 8 8 10 11 12 12 14 14 15 14 13 13 12 11 13 14 15 16 16 15 14 12 11 10 10 10 10 11 11 12 12 11 10 9 8 8 7 6 6 6 6 6 5 5 5 5 4 5 7 11 14 15 14 14 15 15 15 15 12 11 11 12 14 14 13 13 14 15 18 21 23 24 25 20 15 19 23 22 19 17 17 18
13 12 11 10 10 11 12 13 13 13 13 12 11 12 12 12 11 13 15 16 16 15 15 13 11 10 9 10 11 11 10 11 11 11 10 9 8 8 8 8 7 6 6 5 6 6 6 6 5 4 5 8 11 12 12 13 14 13 11 9 7 7 7 10 12 14 14 12 14 18 17 18 20 22 23 24 20 13 15 22 23 19 17 18 21
15 15 14 13 11 11 12 15 16 16 15 15 17 18 16 14 13 14 15 16 16 15 13 11 9 9 8 9 9 9 9 9 9 9 8 7 7 7 8 8 8 7 6 6 5 5 5 5 5 6 7 9 9 8 9 10 9 6 5 8 10 9 9 9 10 12 11 11 16 21 19 18 20 22 22 22 18 12 12 20 23 19 17 22 26
13 12 12 11 12 15 17 19 19 20 19 20 23 25 22 19 17 16 15 15 15 14 13 11 9 8 7 7 7 6 6 6 6 6 5 5 6 6 7 8 8 8 8 7 6 6 6 6 7 8 9 8 6 6 6 6 8 8 10 11 10 9 11 10 9 10 8 10 18 22 19 17 19 22 22 19 14 11 12 19 21 17 18 25 29
8 8 8 10 14 19 21 19 17 17 17 17 19 22 22 22 20 18 16 15 14 14 13 12 10 8 6 5 6 6 5 5 5 6 6 6 6 7 8 8 9 8 7 7 7 7 7 7 8 9 8 5 4 5 4 6 9 10 11 10 9 9 11 12 12 10 5 9 18 20 18 17 18 21 21 15 8 8 14 20 20 17 19 26 29
Wind_Direction
148 147 147 147 146 143 139 137 122 102 143 133 80 2 286 288 293 315 321 320 306 249 213 197 187 171 179 182 177 179 177 169 110 76 89 99 96 94 99 105 107 107 109 112 115 114 106 96 74 50 25 7 353 342 334 327 321 318 316 313 312 310 310 308 306 305 305 307 312 313 314 316 317 320 325 329 335 342 345 347 346 344 343 340 336
150 150 152 155 158 159 160 158 153 170 178 147 114 140 193 283 300 334 331 332 333 223 203 193 179 159 164 175 168 171 171 157 135 99 94 99 96 93 96 105 111 111 112 108 103 97 79 58 35 19 5 357 348 344 342 339 337 337 337 336 331 327 325 323 324 325 324 323 322 323 326 328 331 333 335 338 343 349 352 351 347 345 342 339 336
152 152 155 164 173 181 186 176 168 169 163 154 154 203 226 321 318 333 332 338 0 220 223 219 192 164 165 176 169 167 169 160 149 120 102 99 95 91 91 100 111 114 117 112 92 74 59 47 32 19 6 0 357 356 359 359 1 3 7 11 9 3 360 359 358 355 349 347 346 344 347 349 352 350 346 348 351 354 352 347 343 341 339 337 334
149 148 149 162 168 165 164 158 153 152 152 164 210 248 275 322 322 318 327 332 329 294 237 218 200 178 171 177 178 175 175 173 156 131 111 101 95 90 85 87 91 94 100 109 94 76 62 53 42 33 28 26 24 25 29 34 33 33 33 32 30 25 23 21 16 13 11 9 8 6 5 4 4 0 356 355 352 348 344 339 338 336 336 335 333
148 147 147 152 153 152 150 146 146 151 155 169 199 245 282 308 309 309 331 352 11 60 172 200 201 195 182 180 187 188 187 183 164 137 117 103 100 97 85 80 83 81 76 81 82 76 69 62 55 49 47 48 48 49 52 54 52 48 43 40 37 34 29 27 23 20 19 18 15 12 10 8 5 360 354 347 341 338 335 333 333 332 332 333 334
157 156 155 152 150 151 150 143 146 162 169 171 161 156 317 331 336 349 7 19 38 98 149 175 190 192 187 184 189 193 191 183 169 150 129 113 111 109 98 89 94 84 74 76 78 73 67 64 63 60 54 54 56 56 57 58 56 50 43 37 34 30 28 25 22 20 19 18 14 10 6 1 356 350 343 338 334 333 330 329 330 330 331 333 336
159 159 159 157 157 158 153 143 142 149 160 154 120 106 78 44 26 22 30 38 56 115 149 165 176 175 172 173 178 190 190 183 175 163 145 126 120 117 111 105 102 84 72 74 81 81 68 63 63 62 59 54 53 53 53 51 46 42 33 28 25 22 22 20 17 15 13 12 9 5 359 353 346 340 336 333 331 330 329 328 328 328 330 333 338
161 164 166 165 161 155 146 137 130 128 134 130 115 101 83 61 35 27 31 40 59 104 139 156 166 160 151 155 163 182 184 185 184 173 169 165 140 124 124 118 112 87 84 86 88 91 75 67 65 60 56 53 52 47 41 34 29 28 20 15 15 13 15 13 11 10 8 7 4 0 354 348 343 338 334 332 330 329 328 327 326 326 329 333 340
165 167 171 169 158 150 143 135 126 129 128 125 122 103 79 62 42 30 24 32 60 101 136 144 151 150 140 139 150 169 173 180 187 185 204 207 204 242 245 264 186 141 112 107 101 98 88 88 74 43 34 39 46 41 32 24 16 15 9 3 1 1 4 4 3 3 2 1 359 355 352 347 344 340 336 333 331 330 328 327 326 326 328 333 340
172 171 165 158 152 146 141 140 142 143 126 116 114 95 69 49 39 34 28 41 74 98 142 149 149 164 151 135 138 155 162 172 186 201 224 225 254 268 271 286 237 191 152 124 116 104 93 98 62 9 1 6 18 26 20 12 5 3 359 355 351 348 351 353 353 353 352 352 350 348 346 343 342 340 338 335 333 331 329 328 327 327 328 332 341
176 177 167 159 157 153 147 146 151 150 124 106 101 85 70 48 35 38 45 66 87 78 119 161 167 175 169 149 143 150 156 166 188 211 219 227 250 208 195 227 219 194 181 179 229 68 54 50 31 16 9 4 2 8 6 359 354 352 350 348 344 340 340 343 344 342 342 342 342 341 339 337 337 336 336 334 334 333 332 331 328 328 329 332 341
173 175 171 169 168 164 156 143 135 138 127 103 94 82 66 47 36 39 51 70 87 66 76 136 150 155 157 153 151 157 166 183 208 225 224 233 252 243 215 214 223 205 190 228 274 334 29 34 38 38 33 24 16 9 1 354 348 345 346 345 340 336 334 336 337 336 336 337 337 337 334 333 333 332 333 332 332 332 331 331 329 328 329 332 341
168 170 171 173 172 168 159 149 139 141 142 108 88 76 55 44 44 42 48 62 72 69 90 136 144 144 143 140 146 167 183 198 220 234 237 254 270 258 229 200 193 174 173 222 265 302 27 46 48 51 45 30 23 16 5 355 348 346 348 346 342 339 336 336 338 337 337 338 337 337 335 334 335 334 334 332 332 331 330 330 328 328 328 330 340
168 172 175 176 176 170 162 163 163 157 154 122 86 70 54 50 52 46 50 62 65 65 97 150 151 143 139 120 80 205 210 216 222 229 242 255 255 241 216 192 175 165 189 244 258 275 341 46 45 46 37 22 15 13 7 358 353 352 351 347 344 346 346 348 349 347 344 344 341 340 338 337 339 339 337 334 332 331 331 330 328 328 327 328 338
170 176 179 178 176 173 163 165 175 165 145 122 97 72 66 63 52 43 49 64 65 60 73 139 156 147 128 89 11 346 312 316 235 191 273 252 224 214 214 206 193 192 229 261 261 262 275 0 26 26 22 17 15 13 9 5 1 358 353 347 345 351 357 358 357 355 353 350 346 343 339 337 339 339 338 335 332 331 331 332 331 328 326 325 335
174 174 179 181 178 178 174 167 161 145 131 122 102 86 82 69 55 45 44 52 55 49 55 104 154 162 126 87 51 40 352 327 324 333 30 55 198 210 221 223 222 224 248 263 261 264 280 293 326 353 357 1 12 16 16 14 8 359 352 348 345 349 355 358 357 356 356 355 352 348 343 341 342 341 340 337 335 333 332 333 332 330 328 325 331
179 175 177 184 184 185 186 174 150 136 133 127 111 108 94 70 60 54 42 46 48 45 54 74 120 155 117 104 74 31 238 282 335 339 35 67 138 201 216 227 236 246 266 270 262 263 282 295 297 318 337 337 349 3 8 11 7 360 353 351 347 344 346 349 352 354 356 356 356 354 350 349 350 348 345 343 340 338 336 335 335 332 330 326 329
178 180 184 188 185 186 191 186 166 149 138 117 109 120 109 87 76 58 35 41 50 56 59 60 76 76 48 46 344 295 240 241 72 328 2 46 89 141 169 243 267 264 286 286 278 270 277 295 293 303 326 325 329 341 347 356 1 359 355 351 347 343 340 341 346 350 352 354 355 355 354 355 357 354 351 349 345 343 341 341 340 336 332 327 331
181 191 199 195 186 186 191 191 182 165 153 132 104 133 141 120 85 56 29 44 65 61 53 52 64 56 36 33 0 303 289 17 131 201 338 4 24 87 129 16 8 2 5 343 307 272 272 299 304 312 326 325 325 330 332 340 350 354 352 348 347 343 339 339 343 347 348 349 349 349 351 354 356 356 355 354 352 350 348 347 346 341 335 330 332
194 200 206 203 193 189 192 190 188 188 178 168 151 167 175 176 70 66 87 68 69 61 54 51 47 34 31 43 39 28 249 330 348 139 128 216 316 323 314 341 347 338 7 9 359 323 295 317 321 326 334 333 329 327 325 331 342 348 349 345 344 343 340 340 343 347 346 344 342 340 345 350 353 354 356 357 356 356 355 353 351 345 336 330 328
203 206 206 209 203 193 193 187 190 202 196 200 201 178 181 202 234 212 211 1 51 54 53 51 39 26 24 31 42 69 111 64 55 93 101 111 290 294 319 336 340 336 348 358 356 353 333 338 345 342 342 342 338 332 326 333 341 347 349 345 341 339 337 338 343 347 346 342 339 334 336 343 347 349 351 356 357 358 0 357 354 349 337 329 327
202 208 209 209 207 200 197 184 178 198 204 205 199 189 192 199 216 224 244 285 302 48 49 45 35 27 26 21 24 38 60 88 95 104 98 101 235 279 317 332 326 329 346 344 335 341 337 336 338 337 339 339 339 337 333 337 341 340 341 342 340 336 334 337 345 349 346 342 339 333 331 335 340 344 345 350 355 358 3 2 358 354 343 333 330
202 210 213 207 203 201 199 187 181 203 210 207 207 203 202 201 212 234 251 275 272 253 251 48 40 28 18 6 5 5 357 14 52 122 154 138 191 287 313 329 310 312 335 338 329 334 336 330 324 327 333 332 334 336 335 337 341 339 338 339 342 339 336 341 348 350 347 344 342 336 332 331 332 339 342 344 349 355 2 5 3 359 349 340 337
207 214 216 209 205 202 201 198 202 218 217 212 216 211 205 215 236 248 255 268 279 271 257 40 34 13 355 343 352 359 342 315 308 285 250 266 343 306 313 331 315 310 334 341 334 328 332 337 338 340 342 339 335 334 333 336 342 345 343 340 343 343 342 346 349 349 348 347 346 342 338 335 333 338 343 340 342 349 357 5 7 4 355 346 345
206 213 215 208 208 205 203 204 210 220 221 221 223 217 221 238 248 253 255 260 275 283 283 350 355 347 340 326 329 352 350 332 319 302 254 257 306 308 309 316 293 308 331 337 334 328 325 333 340 340 341 342 338 329 326 332 338 344 344 341 343 345 345 348 349 350 351 351 353 353 352 349 343 345 348 341 337 342 351 1 6 6 0 350 348
208 212 212 208 210 213 212 210 208 212 218 225 228 226 230 235 237 245 249 249 265 287 302 312 326 339 339 322 308 321 334 331 327 314 267 273 307 298 297 312 300 310 329 332 332 329 321 323 330 332 337 346 348 338 329 329 335 341 343 343 346 349 348 348 350 352 355 357 359 1 4 3 359 358 357 348 337 335 343 353 2 6 4 354 349
213 214 215 213 216 221 220 216 215 215 220 228 233 233 228 222 227 238 240 240 259 280 292 299 314 326 331 329 307 290 307 321 326 321 294 287 306 301 311 331 320 326 334 331 331 333 331 335 341 343 344 349 352 350 342 338 339 343 345 349 352 351 349 348 349 350 354 359 0 3 6 6 4 3 0 354 343 334 336 344 352 1 5 358 351
215 215 218 218 219 222 223 221 222 223 225 230 233 233 228 225 232 243 246 246 256 271 284 293 301 303 314 328 311 285 292 303 304 311 304 294 293 290 298 303 296 326 335 331 331 337 341 346 352 354 356 355 349 349 350 348 349 349 350 354 353 349 347 346 347 350 358 3 1 3 8 6 2 1 358 354 347 336 333 336 341 351 360 0 356
213 213 217 220 220 221 226 227 223 225 230 229 224 220 223 231 238 245 248 247 253 268 281 282 283 285 297 317 311 293 288 287 290 296 293 297 297 286 289 295 284 271 295 325 312 307 332 344 349 350 356 356 346 344 348 347 345 343 344 348 349 346 342 340 344 353 2 4 2 4 6 3 359 358 358 356 352 343 335 332 333 338 349 357 357
211 212 216 220 221 221 228 230 225 228 234 229 219 216 222 234 239 240 241 242 252 263 270 274 277 279 286 302 306 302 292 281 291 302 290 290 298 292 289 292 286 265 236 275 302 298 322 335 340 342 346 348 345 341 341 340 338 338 340 343 345 344 341 338 340 346 350 352 357 1 357 352 352 356 3 6 3 354 343 336 332 330 335 346 353
214 214 214 217 218 218 223 226 226 231 236 231 224 223 226 231 237 244 243 246 260 264 263 270 276 278 286 304 305 300 297 287 293 306 296 291 295 292 290 290 285 277 269 257 266 300 311 320 330 338 343 344 345 345 344 345 343 341 338 336 337 340 340 339 338 339 339 340 348 352 348 346 350 358 7 6 2 358 352 347 341 334 328 333 344
218 215 214 216 218 217 219 222 224 231 237 234 230 234 237 236 243 251 246 248 263 267 268 270 269 270 284 302 300 287 286 291 293 296 295 297 298 289 286 288 283 281 282 265 241 284 303 313 323 333 342 343 344 348 350 350 349 345 339 336 338 341 342 344 346 349 350 349 349 346 344 346 352 359 359 354 353 355 353 351 351 346 334 325 334
217 214 215 220 222 223 223 225 227 233 237 236 236 243 248 248 250 253 248 250 262 268 272 272 264 264 274 286 287 277 278 284 283 283 287 293 294 288 284 283 280 279 279 269 256 280 302 314 323 331 340 343 343 346 348 347 347 345 342 343 346 350 354 357 359 3 2 357 349 346 347 350 352 351 348 345 347 351 353 353 353 352 346 329 326
217 215 217 222 226 226 226 229 230 233 237 239 239 241 246 249 249 251 249 252 260 267 272 273 268 262 265 272 273 271 277 283 281 279 284 287 283 282 281 277 280 285 280 273 264 272 293 307 321 330 338 342 340 341 344 344 345 346 348 353 358 2 3 358 355 356 355 353 350 350 352 350 343 340 342 344 348 354 357 356 354 353 351 339 324
223 221 221 223 224 222 222 225 228 231 236 241 242 242 243 246 248 251 252 251 257 267 274 275 272 265 264 272 273 270 272 280 285 283 285 286 276 272 279 279 280 286 284 278 271 267 278 295 313 325 335 341 337 334 340 344 349 356 1 2 359 356 354 351 349 349 350 351 351 350 348 343 339 342 347 354 358 360 360 358 354 352 351 345 329
231 230 227 225 222 219 219 222 225 230 237 240 242 243 242 244 248 251 254 254 256 263 271 276 275 270 270 273 272 269 270 277 290 293 290 288 279 272 278 281 280 282 282 281 280 275 275 286 306 322 333 338 333 334 345 351 355 360 359 352 348 347 348 349 349 349 350 352 353 349 346 345 347 354 2 6 6 3 360 358 353 348 346 345 335
234 232 229 225 223 222 223 226 226 228 234 238 239 239 239 243 248 251 255 258 257 260 264 267 269 268 271 277 275 272 271 272 280 286 290 291 284 276 280 282 281 284 283 280 283 283 279 286 306 321 329 332 333 339 354 357 351 347 344 340 340 344 346 347 350 353 355 358 359 356 355 356 359 6 12 15 15 9 1 359 357 351 346 343 338
232 229 229 228 225 224 226 228 227 227 229 231 230 233 236 240 245 251 256 258 258 259 260 260 262 262 264 271 276 279 276 269 268 274 281 285 278 272 278 280 276 279 278 267 271 283 288 298 312 319 325 332 336 341 352 356 348 344 343 338 337 343 346 346 349 354 0 3 3 3 4 4 6 12 17 21 24 22 15 12 10 6 2 356 345
230 228 232 231 227 226 226 226 226 227 227 225 224 228 234 236 242 250 256 258 256 254 255 259 261 261 262 262 267 278 278 268 266 269 270 271 270 270 275 275 268 263 257 249 260 279 291 304 313 318 324 328 330 331 337 341 339 342 347 343 339 342 345 344 346 353 4 8 5 8 11 9 11 17 21 23 25 23 20 19 20 19 14 3 348
229 232 236 235 230 229 228 227 228 229 227 225 225 229 233 234 239 246 251 256 255 249 252 260 263 265 267 265 265 273 277 269 268 269 263 260 266 273 274 264 249 239 240 253 272 285 293 303 310 313 316 317 319 323 327 333 337 339 344 344 338 338 339 340 345 355 6 6 5 13 18 14 12 17 19 18 17 16 14 13 12 11 6 358 348
228 232 237 239 236 232 229 229 230 228 225 224 226 230 233 233 235 240 245 250 251 245 245 255 264 267 266 264 265 271 278 276 274 274 268 263 268 274 272 254 237 237 253 272 282 289 296 302 305 308 310 311 317 324 326 331 336 335 336 337 334 335 336 338 348 2 7 2 2 10 19 18 14 14 13 8 5 7 9 8 6 3 359 355 349
240 237 235 233 231 231 231 229 228 225 223 225 228 232 234 234 236 239 241 246 249 246 243 249 258 259 257 256 256 265 276 277 275 274 271 268 268 270 266 255 251 259 272 277 281 288 294 299 303 306 306 309 319 328 328 330 334 331 331 333 332 334 337 339 348 0 4 360 356 0 13 20 14 7 5 359 356 0 8 11 13 12 10 7 3
247 250 250 240 223 223 227 227 226 225 224 226 230 235 238 239 239 240 241 244 247 242 238 240 244 242 244 244 245 260 272 273 272 270 266 265 261 256 251 249 256 264 268 268 274 284 292 297 303 304 303 307 321 334 334 333 333 328 328 330 331 333 338 338 337 345 357 358 351 351 6 17 11 4 3 2 359 5 15 19 21 23 24 23 21
243 245 250 254 243 229 223 221 222 221 222 226 230 235 240 240 241 244 245 244 240 232 227 228 229 227 226 228 241 260 263 265 269 269 267 266 258 250 248 247 248 255 263 270 278 285 289 295 301 305 307 310 323 335 334 330 327 324 324 327 330 331 333 332 327 334 351 358 350 348 359 9 7 4 6 8 8 16 27 28 26 26 25 24 22
235 239 245 252 251 242 228 219 217 218 221 226 229 231 237 241 244 249 248 239 233 230 228 225 221 221 226 233 248 261 262 268 273 270 269 267 258 252 252 248 247 254 262 269 278 285 290 295 300 308 315 319 324 327 327 325 322 321 322 324 328 329 327 330 332 337 351 359 353 349 354 2 5 3 4 8 13 26 32 27 24 21 18 20 24
238 243 248 252 252 243 232 224 222 221 220 222 224 225 230 238 244 246 239 228 226 226 221 216 216 223 231 240 253 262 264 271 275 269 264 260 255 253 249 245 248 252 255 260 265 276 288 293 299 306 315 321 318 316 320 321 320 322 322 320 322 323 323 332 340 344 354 2 360 353 351 357 2 0 0 5 13 27 28 22 24 26 24 28 30
251 255 254 250 247 239 231 226 225 224 221 219 221 224 227 230 230 228 222 214 212 209 205 208 218 226 235 247 257 261 263 264 265 263 256 248 247 248 244 239 237 240 255 260 251 252 265 271 278 289 305 315 311 312 319 323 323 323 318 314 318 322 328 341 346 351 2 10 10 2 352 353 359 358 357 360 5 18 21 17 22 29 29 28 24
259 262 258 252 246 238 231 231 236 236 227 224 232 236 233 228 222 220 218 211 206 206 207 214 225 231 241 253 256 255 255 253 251 250 244 241 242 241 238 236 239 247 259 256 243 247 254 255 259 275 298 307 307 313 325 328 325 320 316 328 355 5 1 359 353 356 8 19 17 8 355 351 357 355 353 356 359 6 13 11 14 20 18 13 11
257 256 254 249 246 242 240 245 254 252 238 238 251 251 242 235 228 222 219 213 208 208 209 213 223 232 239 244 246 246 243 242 242 240 236 237 239 241 245 249 253 256 252 242 237 237 239 245 255 275 293 298 300 317 334 341 345 351 22 46 48 37 22 14 356 352 6 20 14 4 353 350 354 353 351 356 2 9 9 5 9 13 7 4 5
256 257 255 248 245 248 251 253 256 252 241 241 249 249 244 240 231 220 216 214 209 206 205 206 214 224 224 221 225 230 226 226 232 234 240 247 251 259 265 266 265 260 249 243 242 239 243 253 258 272 287 289 300 330 355 25 43 49 51 50 47 40 40 39 15 1 11 15 6 360 354 354 357 357 356 357 5 17 8 0 6 13 6 2 3
268 264 252 243 245 250 252 251 249 245 240 238 239 240 237 234 227 215 210 212 210 206 202 200 201 204 203 198 202 210 214 219 230 246 262 268 268 268 267 268 267 261 253 251 257 263 267 269 275 285 290 294 335 7 37 54 43 38 40 44 47 50 53 50 37 28 16 356 1 3 359 356 359 4 6 0 355 3 359 359 7 10 3 0 1
Height
861 862 862 862 862 863 863 863 863 863 862 862 862 862 862 862 862 862 862 862 861 860 860 859 859 859 859 860 860 861 862 862 861 860 859 858 858 857 857 857 857 857 857 857 857 857 856 856 856 855 855 855 854 854 853 852 851 850 849 848 847 846 846 845 844 843 842 841 840 839 838 836 836 835 834 834 833 832 832 831 830 828 827 826 824
862 863 863 863 863 863 863 863 863 863 863 863 862 862 862 862 863 862 862 861 861 860 860 860 859 859 860 861 861 861 862 862 861 860 859 859 859 858 858 858 857 857 857 857 857 857 857 856 856 855 855 855 854 854 853 852 851 849 848 847 846 846 845 844 843 842 841 840 839 838 837 836 835 834 833 832 832 831 830 830 829 827 826 824 823
863 864 864 864 864 864 864 864 864 864 863 863 863 862 862 863 862 862 862 861 861 860 860 860 860 860 861 861 861 862 862 861 861 861 860 860 860 859 859 859 858 858 858 858 858 857 857 857 856 856 855 855 854 853 852 851 850 849 848 847 846 845 844 843 842 841 841 839 839 837 836 836 834 834 832 832 831 830 829 828 827 826 824 823 821
864 864 864 864 864 864 864 864 864 864 864 863 863 863 863 863 862 862 862 861 861 860 859 859 860 860 861 862 862 862 862 862 862 861 861 861 861 860 860 860 859 859 859 858 858 858 857 857 857 856 855 855 854 853 852 851 850 849 848 847 846 845 844 843 842 841 840 839 838 837 836 835 834 833 832 831 830 829 828 827 826 824 823 822 820
864 864 865 865 865 865 865 865 865 864 864 864 863 863 863 863 863 862 862 861 860 859 859 859 860 860 861 862 862 862 862 862 862 862 862 861 861 861 861 860 860 860 859 859 859 858 858 857 857 856 855 855 854 853 852 851 850 849 849 848 847 846 844 843 842 841 840 839 838 837 836 835 834 833 832 831 830 829 827 826 825 823 822 820 819
865 865 865 865 865 865 865 865 865 865 864 864 864 863 863 863 863 862 861 860 859 859 859 859 860 860 861 862 862 862 862 862 862 862 862 862 861 861 861 861 860 860 860 859 859 858 858 857 857 856 855 855 854 854 853 852 851 850 849 848 847 846 845 844 843 842 840 839 838 837 836 835 834 833 831 830 829 828 826 825 824 822 820 819 817
865 865 865 865 865 865 865 865 865 865 864 864 864 864 864 863 863 862 861 860 860 859 860 860 860 861 861 862 862 862 862 862 862 862 862 862 862 862 861 861 860 860 860 859 859 859 858 858 857 856 856 856 855 854 854 853 852 850 849 848 847 846 845 844 843 842 841 839 838 837 836 835 833 832 831 830 828 827 826 824 822 821 819 817 816
865 865 865 865 865 865 865 865 865 865 864 864 864 864 864 864 863 862 861 860 860 860 860 860 861 862 862 862 862 862 862 862 862 862 862 862 862 862 861 861 860 860 860 860 859 859 859 858 858 857 856 856 855 855 854 853 852 851 850 849 848 847 845 844 843 842 841 839 838 837 836 834 833 832 830 829 828 826 825 823 821 819 818 816 815
865 865 866 866 866 866 865 865 865 865 865 864 864 864 864 864 863 862 861 861 860 860 861 861 862 862 862 862 862 862 862 862 862 862 862 862 862 862 861 861 861 861 860 860 860 859 859 858 858 857 857 856 856 855 854 853 852 851 850 849 848 847 845 844 843 842 841 839 838 837 835 834 832 831 830 828 827 826 824 822 821 819 817 815 814
865 866 866 866 866 866 866 866 866 865 865 865 864 864 864 864 863 863 862 861 861 861 861 862 862 862 863 863 863 862 863 863 863 863 862 862 862 862 862 861 861 861 860 860 860 859 859 858 858 857 857 856 856 855 854 853 852 851 850 849 848 847 846 845 843 842 841 839 838 836 835 833 832 830 829 828 826 825 823 822 820 818 816 814 813
865 866 866 866 866 866 866 866 866 866 865 865 865 864 864 864 863 863 862 862 861 862 862 862 862 862 863 863 863 863 863 864 863 863 863 863 863 862 862 862 861 861 861 860 860 860 859 859 858 857 857 856 856 855 854 853 852 852 850 849 848 847 846 845 843 842 840 839 838 836 834 833 831 830 828 827 825 824 823 821 819 817 815 814 812
865 866 866 866 866 866 866 866 866 866 865 865 865 864 864 864 864 863 862 862 862 862 862 862 862 863 863 863 863 864 864 864 863 863 863 863 863 862 862 862 861 860 860 860 860 860 859 859 858 857 857 856 856 855 854 853 853 852 850 849 848 847 846 844 843 842 840 839 837 836 834 832 831 829 828 826 825 823 822 820 818 816 814 813 812
866 866 866 866 866 866 866 867 866 866 866 865 865 865 864 864 864 863 863 862 862 862 862 863 863 863 864 864 863 863 864 864 863 863 863 863 862 862 862 861 861 860 860 860 860 860 859 859 858 858 857 856 856 855 854 854 853 851 850 849 848 847 846 844 843 841 840 838 837 835 833 832 830 828 827 826 824 823 821 819 818 816 814 812 811
866 866 866 866 866 866 866 866 866 866 866 865 865 865 864 864 864 863 863 863 862 862 863 863 863 863 863 864 864 864 863 863 863 863 862 862 862 862 861 861 861 860 860 860 860 860 859 859 858 858 857 856 856 855 854 853 853 851 850 849 848 847 845 844 842 841 839 838 836 835 833 831 829 828 827 825 823 822 820 819 817 815 813 812 811
866 866 866 866 866 866 866 866 866 866 866 865 865 865 865 864 864 864 863 863 863 863 863 863 863 863 864 866 866 866 865 864 863 863 862 862 862 862 861 861 861 861 860 860 859 859 859 859 858 858 857 856 856 855 854 853 853 852 850 849 848 846 845 844 842 841 839 837 836 834 833 831 829 828 826 824 823 821 820 818 816 815 813 811 810
866 866 866 866 866 866 866 866 866 866 866 865 865 865 865 865 865 864 864 864 864 863 863 863 863 864 865 867 868 869 871 867 863 863 862 861 861 861 862 861 861 861 860 860 859 859 859 859 858 858 857 856 856 855 854 853 853 851 850 849 848 846 845 844 842 841 839 837 835 834 832 830 829 827 825 824 822 820 819 817 816 814 812 811 809
866 866 866 866 866 866 866 866 866 866 866 865 865 865 865 865 865 865 865 865 864 864 863 863 864 864 865 867 869 871 872 867 865 864 862 861 862 861 862 862 861 861 860 860 859 859 859 859 858 858 857 856 856 855 854 853 852 851 850 849 848 846 845 844 842 840 839 837 835 834 832 830 828 826 825 823 821 819 818 816 815 813 812 810 809
865 866 866 866 866 866 866 866 866 866 866 866 865 865 865 865 865 865 865 865 864 864 864 864 864 864 864 865 866 868 867 865 866 867 863 862 862 862 862 861 861 861 860 860 859 859 859 859 858 858 857 856 855 855 854 853 852 851 850 849 847 846 845 843 842 840 839 837 835 834 832 830 828 826 824 822 821 819 817 816 814 813 811 810 809
865 865 866 866 866 866 866 866 866 866 866 866 865 865 866 866 866 866 865 865 865 864 864 864 864 864 864 864 864 864 864 864 866 867 867 865 862 862 862 861 861 861 860 860 859 859 859 858 858 858 857 856 855 855 854 853 852 851 849 848 847 846 845 843 842 840 838 837 835 834 832 830 828 826 824 822 820 818 817 815 814 812 811 809 808
864 865 865 865 865 866 866 866 866 866 866 866 865 865 866 866 866 866 865 865 865 865 865 865 864 864 864 864 864 863 863 864 864 865 867 868 865 862 862 861 861 861 860 860 860 859 859 858 858 857 857 856 855 854 853 853 851 850 849 848 847 846 844 843 841 840 838 837 835 834 832 830 828 826 825 822 820 818 816 815 813 812 811 809 808
864 864 864 864 865 865 866 866 866 866 866 866 865 865 865 865 865 865 865 865 865 865 865 865 864 864 864 864 864 864 864 864 864 864 864 867 867 864 862 862 861 860 860 860 860 860 859 858 858 857 857 856 855 854 853 852 851 850 849 848 847 846 844 842 841 839 838 836 835 833 831 829 828 826 825 823 820 818 817 815 813 812 810 809 808
863 864 864 864 864 865 865 866 866 866 866 865 865 865 865 865 865 865 865 865 865 865 865 865 864 864 864 864 864 864 864 864 864 864 864 865 866 864 863 862 862 861 860 860 860 860 859 858 857 857 856 856 855 854 853 852 851 850 849 848 847 845 844 842 840 839 837 836 834 832 830 829 827 826 824 823 821 819 817 815 813 812 810 809 808
863 863 864 864 864 865 865 865 865 865 865 865 865 865 865 865 865 865 865 865 865 865 865 865 865 864 864 864 864 864 864 864 864 864 864 864 865 864 863 862 862 861 860 860 859 859 858 858 857 856 856 855 855 854 853 851 850 849 848 847 846 845 843 842 840 839 837 835 834 831 829 828 827 825 824 823 821 819 817 816 814 812 811 809 808
863 863 863 864 864 864 865 865 865 865 865 865 865 865 865 865 865 865 865 865 865 865 865 865 865 864 864 864 864 864 864 864 864 864 863 863 864 864 863 862 862 861 860 860 859 858 858 857 856 856 856 855 854 853 852 851 850 849 848 847 846 845 843 841 840 838 836 835 833 830 828 827 826 825 823 822 821 819 818 816 814 812 811 810 809
862 862 863 863 863 864 864 865 865 865 865 865 865 865 865 865 865 865 865 865 865 865 865 865 865 865 865 864 864 864 864 864 864 863 863 863 863 863 863 862 862 861 860 859 858 858 857 856 856 856 855 855 854 853 852 851 850 849 847 846 845 844 843 841 839 838 836 834 832 830 827 826 825 824 823 822 820 819 817 816 814 813 811 810 809
861 862 862 863 863 863 864 864 864 865 865 864 864 864 864 864 865 865 865 865 865 865 865 865 865 865 865 865 864 864 864 864 864 863 863 863 863 863 863 862 861 860 859 859 858 857 856 856 856 855 855 854 853 852 851 850 849 848 847 846 844 844 842 841 839 837 836 834 832 829 827 826 824 823 822 821 820 819 817 816 815 813 812 810 809
861 862 862 863 863 863 863 864 864 864 864 864 864 864 864 864 864 864 865 865 865 865 865 865 865 865 865 865 865 865 865 864 864 864 863 863 863 863 863 863 863 861 859 859 858 858 857 856 855 855 854 853 853 852 851 850 849 848 847 845 844 843 842 840 839 837 836 834 832 830 828 826 824 823 822 821 820 818 817 816 815 814 812 811 809
861 861 862 862 862 863 863 863 863 864 864 864 864 864 864 864 864 864 864 865 865 865 865 865 864 864 864 864 864 864 864 864 864 864 863 863 863 863 862 862 864 865 863 861 859 858 858 856 855 855 854 853 853 852 850 849 848 847 846 845 844 843 842 840 839 837 835 833 832 830 828 826 825 823 822 820 819 818 817 816 815 814 813 811 810
860 861 861 862 862 862 862 863 863 863 863 863 863 863 864 864 864 864 864 864 865 865 864 864 864 864 864 864 864 864 864 863 863 863 863 863 863 863 863 862 863 865 865 865 862 858 858 857 856 855 854 853 852 851 850 849 848 847 846 845 844 842 841 840 838 837 835 833 832 830 828 826 825 823 821 820 818 817 816 815 814 814 813 811 810
859 860 860 861 861 861 861 862 862 862 863 863 863 863 863 863 863 864 864 864 864 864 864 864 863 864 863 863 863 863 863 863 863 863 862 863 863 862 863 862 862 863 864 865 863 859 858 857 856 856 854 853 852 851 850 849 848 847 845 844 843 842 841 839 838 836 835 833 832 830 828 826 824 822 820 819 818 817 815 814 813 813 812 811 810
859 859 860 860 860 860 860 861 861 862 862 862 862 862 863 863 863 863 863 863 863 863 863 863 863 863 863 863 863 863 863 862 862 862 862 862 862 862 862 862 862 863 862 863 863 860 858 857 857 856 855 853 852 851 849 848 847 846 845 844 843 842 841 839 837 836 834 833 831 830 828 826 824 822 820 819 818 817 815 814 812 811 811 811 810
858 858 858 859 859 859 860 860 860 861 861 861 862 862 862 862 862 862 863 863 863 862 863 863 862 863 863 862 862 862 862 862 862 862 861 861 861 861 861 861 861 862 861 861 862 859 858 858 857 856 855 853 852 850 849 848 847 846 845 844 843 841 840 838 836 835 833 832 831 829 827 825 823 821 820 819 817 816 815 813 812 811 810 810 809
856 857 857 857 858 858 859 859 860 860 860 861 861 861 861 861 861 862 862 862 862 862 862 862 862 862 862 862 862 862 862 862 861 861 860 860 860 860 860 860 860 860 860 860 860 858 857 857 856 855 854 853 851 850 849 847 846 845 844 843 842 840 839 838 836 834 833 831 830 828 827 825 823 821 820 818 817 815 814 813 811 810 809 808 808
855 855 856 856 857 857 858 858 859 859 860 860 860 860 860 861 861 861 861 861 861 861 861 861 861 861 861 861 861 861 861 861 860 860 860 860 859 859 859 859 859 859 859 859 859 858 856 856 855 855 854 853 851 850 849 848 846 845 843 842 841 840 839 838 836 834 832 831 830 828 826 824 822 821 819 817 816 815 813 812 811 810 808 808 808
853 854 855 855 856 856 857 857 858 858 859 859 859 859 859 860 860 860 860 860 861 861 860 860 860 860 860 860 860 860 860 860 860 860 860 859 859 858 858 858 858 858 858 858 858 857 856 855 854 854 853 852 851 850 849 848 847 845 843 842 841 840 839 837 835 834 832 830 829 827 825 824 822 820 819 817 815 814 813 812 811 809 808 807 807
852 852 853 854 854 855 855 856 856 857 857 858 858 858 858 859 859 859 859 859 860 860 860 860 860 859 859 859 859 859 859 859 859 859 859 859 858 858 857 857 857 857 857 857 857 857 856 855 854 853 852 851 850 850 849 847 846 845 843 842 841 839 838 837 835 833 831 829 827 826 824 823 821 820 818 817 815 814 813 812 810 809 808 807 807
851 851 851 852 853 853 854 854 855 855 856 856 857 857 857 858 858 858 858 858 858 858 859 859 858 858 858 858 858 858 858 858 858 858 859 859 858 857 857 857 857 857 857 857 856 856 855 854 853 852 852 851 850 849 848 847 845 844 843 842 840 839 837 836 834 833 830 828 826 825 823 822 821 819 818 816 815 814 813 811 810 808 807 807 806
849 849 850 851 851 851 852 852 853 853 854 854 855 855 856 856 856 857 857 857 857 857 858 858 857 857 857 857 857 857 857 857 857 857 857 857 857 856 856 856 856 856 856 856 856 855 855 854 853 852 851 851 849 848 848 847 845 843 842 840 839 838 837 835 833 831 830 828 826 825 823 821 820 819 818 816 815 814 812 811 810 808 808 807 807
848 848 848 849 849 850 850 851 851 852 852 853 853 854 854 855 855 855 855 856 856 856 857 856 856 857 856 856 856 855 855 855 856 856 856 856 855 855 855 855 855 855 855 855 855 855 854 853 853 852 851 850 849 848 847 846 845 843 842 839 837 836 836 834 833 831 829 828 826 824 823 822 820 819 818 816 815 814 812 811 810 809 808 808 807
846 847 847 847 848 848 849 849 849 850 850 851 852 852 852 853 853 853 854 854 854 855 855 855 855 855 855 855 854 854 854 854 854 855 855 854 854 854 854 854 854 853 854 854 854 854 854 853 852 852 851 850 849 848 847 845 844 843 842 841 839 836 834 833 832 831 829 828 826 824 823 822 820 819 818 816 815 814 813 811 810 810 809 808 807
845 845 845 846 846 846 847 848 848 848 849 850 850 851 851 851 851 852 852 853 853 853 854 854 854 854 853 853 853 853 852 852 853 853 853 853 853 852 853 853 853 853 852 853 853 852 852 852 852 851 850 849 848 847 846 845 844 843 842 841 840 838 836 833 832 831 830 828 827 825 824 822 821 820 818 817 816 815 814 812 811 810 808 807 806
844 844 844 844 844 844 845 846 847 847 848 849 849 849 850 850 850 850 850 851 852 852 852 852 853 852 852 852 852 852 852 851 851 851 851 851 851 851 851 852 852 852 851 851 851 851 851 851 850 850 849 848 847 847 846 845 844 843 842 841 840 838 836 834 831 831 830 829 827 826 825 823 822 821 819 818 816 815 814 813 811 810 808 807 806
843 843 844 844 843 843 844 844 845 846 846 847 848 848 848 849 849 849 849 849 850 850 850 850 851 851 851 851 851 851 851 850 851 850 850 850 850 850 850 850 851 850 850 850 850 849 849 849 849 849 848 847 847 846 845 844 843 843 842 841 840 838 836 835 832 831 830 829 828 827 825 824 823 821 819 818 816 815 814 813 812 810 808 807 806
842 842 843 843 843 843 843 843 843 844 845 846 846 846 847 847 847 847 847 848 848 848 848 848 849 849 849 850 850 850 850 849 849 849 849 849 848 848 849 849 849 849 849 849 849 848 848 848 847 847 847 846 846 845 844 843 842 842 841 840 839 838 837 836 834 832 830 829 828 827 826 825 823 822 820 818 816 815 814 813 812 810 808 807 806
840 841 841 842 842 843 843 843 843 843 843 844 844 844 845 845 845 845 845 846 846 847 847 847 847 847 847 848 848 848 848 848 848 848 848 847 847 847 847 848 848 848 848 848 848 847 847 847 846 846 846 845 845 844 844 843 842 840 839 838 838 837 837 836 835 833 831 830 828 827 826 825 824 822 820 818 816 815 814 813 811 810 809 808 807
840 840 841 841 841 842 842 842 842 842 842 842 842 843 843 843 843 843 843 844 844 845 846 846 846 845 845 846 846 847 847 846 846 846 846 846 846 846 846 846 847 847 847 847 847 846 846 845 845 845 845 845 844 843 842 842 841 839 838 837 836 836 836 835 835 834 832 830 829 828 826 825 824 823 821 819 817 816 815 813 812 811 809 808 807
839 840 840 840 840 840 840 841 841 841 841 841 841 841 842 842 842 842 842 842 843 843 844 845 845 845 845 845 845 845 845 845 845 844 845 845 845 845 845 846 846 846 846 846 845 845 845 844 844 844 844 844 843 842 841 840 839 838 837 836 835 835 835 834 834 833 832 831 830 828 827 826 825 823 822 820 818 817 815 814 813 811 810 809 808
837 838 839 839 839 839 839 840 840 840 841 841 841 841 841 841 841 841 841 841 841 842 842 843 843 844 844 844 843 844 843 843 843 843 844 844 844 844 845 845 845 845 845 845 844 844 844 843 843 843 843 843 842 841 840 839 837 836 835 834 834 834 834 833 833 832 831 830 830 829 827 826 825 824 822 820 819 817 816 816 814 812 811 810 808
835 836 837 838 838 839 839 838 838 839 839 839 839 840 840 840 840 840 840 839 839 840 840 840 841 842 842 842 842 843 842 842 842 843 843 843 843 843 844 844 844 844 844 844 844 844 843 843 843 843 842 842 841 841 839 838 836 835 834 833 833 833 833 833 832 832 831 830 830 828 827 826 825 823 822 820 819 818 817 816 815 814 812 811 809
832 834 835 836 837 837 837 836 836 836 836 836 837 837 838 838 839 838 838 838 838 838 838 838 839 839 840 841 841 842 842 842 842 842 842 842 842 842 843 843 843 843 843 843 843 843 843 842 842 842 841 841 840 839 839 838 836 835 834 833 833 833 833 833 832 832 831 830 829 828 827 825 824 823 821 819 818 818 818 817 816 814 813 811 810
831 832 833 834 835 834 834 834 834 835 835 834 835 835 835 835 836 835 836 837 837 837 837 837 837 837 839 840 841 841 841 841 841 841 841 842 841 841 842 841 841 841 841 841 841 841 841 841 840 840 840 840 839 838 838 838 837 835 834 834 833 833 832 833 832 832 831 831 830 828 826 825 824 822 821 819 818 817 817 817 815 814 813 812 810